SL-8 DEB, 27744

Orbit data source: Space-Track

SL-8 DEB, 27744 is space debris in LEO originally from a launch on Tue, 12 Feb 1991 UTC launched from the Plesetsk Missile And Space Complex (PKMTR). Debris objects in space refer to the collection of defunct objects orbiting the Earth. Examples of debris include non-operational satellites, rocket bodies, and fragments generated from explosions, collisions, or faulty payload assembly.

Loading next visibility...
Identifier
27744, 1991-009CZ
Orbit
LEO
Country
Flag of CISCIS
Related business
Manufacturer
Unknown
Mission
Spacecraft
Bus & Motor
Unknown
Mass
Unknown
Launch date (UTC)
1991-02-12 (35 years ago)
Launch vehicle
Unknown
Launch site
Plesetsk Missile And Space Complex (PKMTR)
Object type
Payload
Rocket body
Debris
Shape & HBR
Unknown shape, 0.1 m
Radar Cross Section
Medium (>0.1 m² and <1 m²)

Expand to show TLE details & history
Last TLE update: 2 days ago

TLE from 2 days ago
0 SL-8 DEB
1 27744U 91009CZ  26171.45081110 -.00000016  00000-0 -46165-5 0  9996
2 27744  74.0524 237.9770 0175965 306.8222  71.9435 12.18608441466010
Epoch: 2026-06-20T10:49Z
TLE epoch observation values (Epoch: 2026-06-20T10:49:10.079Z)
Latitude
19.87282°
Longitude
172.91941°
Altitude
1,559.299 km
Speed
7.108 km/s
True Right ascension
16h 15m 30s
True Declination
19° 46' 27"
Sunlit
Object was in full shadow at epoch
Visualization orbit readout
Latitude
Unknown
Longitude
Unknown
Altitude
Unknown
Speed
Unknown
Apparent Right ascension
Unknown
Apparent Declination
Unknown
Sunlit
N/A
Visualization observer readout
Local Sidereal Time
02:14:38
Azimuth
Unknown
Elevation
Unknown
Doppler factor
Unknown
Orbital elements
Apogee altitude
1,736.802 km
Perigee altitude
1,456.152 km
Semi-major axis
7,974.614 km
Eccentricity
0.0176
Inclination
74.0524°
RAAN
237.977°
Arg. of periapsis
306.8222°
True anomaly
73.8734°
Mean anomaly
71.9435°
Eccentric anomaly
72.90717°
Mean motion
3.04775 °/min
Orbital period
118.12 mins
BSTAR
-0.0000046165
Loading maneuver chart data...
Computing Atmospheric mass density...
Loading historical data...
Loading historical data...
Loading historical data...
Loading historical data...
Loading historical data...
Loading historical data...
Loading historical data...

Documentation

Showing up to 5 results
|